THORAD AGENA D DEB, 4644

Orbit data source: Space-Track

THORAD AGENA D DEB, 4644 is space debris in SSO originally from a launch on Wed, 08 Apr 1970 UTC launched from the Air Force Western Test Range (AFWTR). Debris objects in space refer to the collection of defunct objects orbiting the Earth. Examples of debris include non-operational satellites, rocket bodies, and fragments generated from explosions, collisions, or faulty payload assembly.

Loading next visibility...
Identifier
4644, 1970-025AC
Orbit
SSO
Country
Flag of USUS
Related business
Manufacturer
Unknown
Mission
Spacecraft
Bus & Motor
Unknown
Mass
Unknown
Launch date (UTC)
1970-04-08 (56 years ago)
Launch vehicle
Unknown
Launch site
Air Force Western Test Range (AFWTR)
Object type
Payload
Rocket body
Debris
Shape & HBR
Unknown shape, 0.1 m
Radar Cross Section
Medium (>0.1 m² and <1 m²)

Expand to show TLE details & history
Last TLE update: 4 hours ago

TLE from 4 hours ago
0 THORAD AGENA D DEB
1  4644U 70025AC  26095.54967884  .00000528  00000-0  75996-3 0  9999
2  4644  99.5622 350.9840 0013649 109.3074 321.0947 13.60465704767304
Epoch: 2026-04-05T13:11Z
TLE epoch observation values (Epoch: 2026-04-05T13:11:32.251Z)
Latitude
68.2689°
Longitude
-65.61806°
Altitude
1,037.871 km
Speed
7.343 km/s
True Right ascension
21h 44m 28s
True Declination
68° 09' 17"
Sunlit
Object was in daylight at epoch
Visualization orbit readout
Latitude
Unknown
Longitude
Unknown
Altitude
Unknown
Speed
Unknown
Apparent Right ascension
Unknown
Apparent Declination
Unknown
Sunlit
N/A
Visualization observer readout
Local Sidereal Time
23:13:31
Azimuth
Unknown
Elevation
Unknown
Doppler factor
Unknown
Orbital elements
Apogee altitude
1,041.394 km
Perigee altitude
1,021.167 km
Semi-major axis
7,409.417 km
Eccentricity
0.00136
Inclination
99.5622°
RAAN
350.984°
Arg. of periapsis
109.3074°
True anomaly
320.99634°
Mean anomaly
321.0947°
Eccentric anomaly
321.04553°
Mean motion
3.40304 °/min
Orbital period
105.79 mins
BSTAR
0.00075996
Loading maneuver chart data...
Computing Atmospheric mass density...

Documentation

Showing up to 5 results
|